CDT,Max TemperatureF,Mean TemperatureF,Min TemperatureF,Max Dew PointF,MeanDew PointF,Min DewpointF,Max Humidity, Mean Humidity, Min Humidity, Max Sea Level PressureIn, Mean Sea Level PressureIn, Min Sea Level PressureIn, Max VisibilityMiles, Mean VisibilityMiles, Min VisibilityMiles, Max Wind SpeedMPH, Mean Wind SpeedMPH, Max Gust SpeedMPH,PrecipitationIn, CloudCover, Events, WindDirDegrees
2012-10-1,75,62,50,48,44,41,77,58,31,29.93,29.89,29.85,10,10,10,14,5,22,0.00,0,,353
2012-10-2,75,60,44,52,44,39,87,63,27,29.96,29.92,29.87,10,10,7,9,5,,0.00,0,,16
2012-10-3,78,61,44,46,42,34,87,54,20,29.97,29.92,29.88,10,9,1,13,5,20,0.00,0,,148
2012-10-4,59,50,37,46,36,28,72,55,33,30.21,30.06,29.91,10,10,7,23,12,33,0.00,1,Rain,272
2012-10-5,50,40,30,30,21,3,86,51,16,30.22,30.18,30.12,10,10,10,21,9,29,0.00,0,,279
2012-10-6,44,38,33,28,25,19,75,56,42,30.26,30.22,30.15,10,10,10,17,11,24,0.00,7,,319
2012-10-7,53,38,24,25,18,7,80,47,16,30.24,30.14,30.00,10,10,4,15,6,21,0.00,1,,241
2012-10-8,66,50,35,32,26,18,70,42,15,30.00,29.86,29.75,10,10,10,28,13,37,0.00,2,,192
2012-10-9,59,49,39,46,39,28,93,73,34,30.01,29.87,29.78,10,10,5,17,9,24,0.22,6,Rain,263
2012-10-10,53,42,30,30,27,21,81,57,28,30.16,30.08,30.01,10,10,10,17,9,24,0.00,1,,255
2012-10-11,55,46,35,37,30,19,71,52,39,30.36,30.11,29.95,10,10,10,20,11,24,0.01,2,Rain,299
2012-10-12,55,42,28,36,18,1,75,45,11,30.44,30.33,30.11,10,10,4,16,7,21,0.01,1,Rain,101
2012-10-13,69,58,46,63,54,37,94,84,71,30.10,29.82,29.67,10,7,4,21,13,26,0.06,8,Rain,179
2012-10-14,64,54,44,61,48,37,94,81,63,29.89,29.71,29.58,10,9,1,28,12,34,0.85,6,Rain,322
2012-10-15,62,50,37,45,39,34,87,67,37,29.99,29.92,29.85,10,10,10,9,5,,0.00,1,,239
2012-10-16,71,60,48,52,47,43,82,69,50,29.83,29.57,29.41,10,10,7,17,9,21,0.00,0,,161
2012-10-17,62,55,48,54,47,39,88,73,42,29.42,29.36,29.30,10,10,7,24,11,31,0.04,5,Rain,224
2012-10-18,48,45,42,43,41,37,93,83,66,29.37,29.30,29.25,10,8,2,17,11,26,0.06,8,Rain,264
2012-10-19,51,45,39,46,41,36,93,87,81,29.74,29.58,29.40,10,7,0,14,5,20,0.18,6,Fog-Rain,324
2012-10-20,53,45,37,45,41,36,93,84,72,29.87,29.82,29.74,10,7,0,10,5,,0.00,5,Fog-Rain,237
2012-10-21,71,56,42,54,47,39,87,73,50,29.89,29.86,29.82,10,10,7,17,10,22,0.00,0,,136
2012-10-22,66,62,57,61,57,52,88,83,77,29.88,29.86,29.83,10,8,3,14,8,,0.02,7,Rain,92
2012-10-23,71,66,62,64,62,59,88,82,73,29.83,29.78,29.73,10,6,1,17,11,22,0.11,8,Rain,157
2012-10-24,75,67,59,66,63,55,88,84,73,29.83,29.76,29.66,10,6,2,17,8,24,0.39,7,Rain,172
2012-10-25,60,48,35,55,40,28,94,84,70,30.21,29.84,29.59,10,9,1,31,14,40,0.85,8,Rain,322
2012-10-26,41,36,30,28,27,25,86,69,57,30.40,30.35,30.22,10,10,10,16,9,23,0.00,5,,293
2012-10-27,42,35,28,28,24,18,86,62,36,30.39,30.34,30.30,10,10,7,7,3,,0.00,3,,315
2012-10-28,48,37,26,27,21,14,86,55,25,30.36,30.32,30.28,10,9,3,9,4,,0.00,0,,108
2012-10-29,48,38,28,30,25,19,75,61,43,30.34,30.30,30.21,10,10,10,12,6,,0.00,3,,121
2012-10-30,53,42,30,30,25,14,75,56,22,30.21,30.09,30.00,10,10,10,21,9,24,0.00,0,,2
2012-10-31,51,38,24,27,19,3,80,55,14,30.02,29.99,29.95,10,10,10,16,8,20,0.00,0,,317